Location: Unspecified
(0.0000°N, 0.0000°E)
Time: 00:37:53
(UTC+00:00)

A-11 Canister half - Pass Details

Date: 12 February 2023
Orbit: 1526 x 1682 km, 47.3° (Epoch: 29 March)

Event Time Altitude Azimuth Distance (km) Brightness Sun altitude
Rises 10:03:55 0° 350° (N) 4,723 11.4 55.0°
Reaches altitude 10° 10:08:30 10° 9° (N) 3,770 11.1 56.0°
Maximum altitude 10:14:18 17° 47° (NE) 3,254 11.1 57.3°
Drops below altitude 10° 10:20:11 10° 85° (E) 3,853 11.7 58.6°
Sets 10:24:51 0° 103° (ESE) 4,871 12.1 59.7°
